| time (UTC) | temp C | wind direction | speed KPH | gust KPH | rain 1hr cm | rain 24hr cm | rain mn cm | humidity % | barometer mb |
| 20260503201426 | 16 | 257 | 6.4 | 16.1 | 0.00 | 0.00 | 0.00 | 54 | 1015.3 |
| 20260503200926 | 16 | 202 | 8.0 | 17.7 | 0.00 | 0.00 | 0.00 | 52 | 1015.1 |
| 20260503200426 | 16 | 204 | 8.0 | 17.7 | 0.00 | 0.00 | 0.00 | 52 | 1015.5 |
| 20260503195926 | 16 | 144 | 8.0 | 19.3 | 0.00 | 0.00 | 0.00 | 52 | 1015.6 |
| 20260503195426 | 16 | 275 | 6.4 | 19.3 | 0.00 | 0.00 | 0.00 | 52 | 1015.7 |
| 20260503194927 | 16 | 256 | 4.8 | 19.3 | 0.00 | 0.00 | 0.00 | 54 | 1015.9 |
| 20260503194425 | 16 | 195 | 6.4 | 14.5 | 0.00 | 0.00 | 0.00 | 53 | 1015.8 |
| 20260503193925 | 16 | 178 | 6.4 | 27.4 | 0.00 | 0.00 | 0.00 | 50 | 1015.6 |
| 20260503193424 | 17 | 186 | 8.0 | 27.4 | 0.00 | 0.00 | 0.00 | 51 | 1015.6 |
| 20260503192924 | 17 | 143 | 9.7 | 22.5 | 0.00 | 0.00 | 0.00 | 51 | 1015.6 |
| 20260503192424 | 17 | 214 | 9.7 | 20.9 | 0.00 | 0.00 | 0.00 | 50 | 1015.7 |
| 20260503191929 | 17 | 178 | 8.0 | 22.5 | 0.00 | 0.00 | 0.00 | 52 | 1015.6 |
| 20260503191924 | 17 | 155 | 9.7 | 22.5 | 0.00 | 0.00 | 0.00 | 50 | 1015.7 |
| 20260503190924 | 17 | 170 | 6.4 | 19.3 | 0.00 | 0.00 | 0.00 | 49 | 1015.6 |
| 20260503190424 | 17 | 138 | 8.0 | 22.5 | 0.00 | 0.00 | 0.00 | 51 | 1015.6 |
| 20260503185928 | 17 | 189 | 6.4 | 17.7 | 0.00 | 0.00 | 0.00 | 53 | 1016.0 |
| 20260503185924 | 17 | 302 | 6.4 | 22.5 | 0.00 | 0.00 | 0.00 | 51 | 1015.9 |
| 20260503184922 | 17 | 200 | 6.4 | 17.7 | 0.00 | 0.00 | 0.00 | 53 | 1016.0 |
| 20260503184421 | 17 | 263 | 8.0 | 17.7 | 0.00 | 0.00 | 0.00 | 51 | 1016.2 |
| 20260503183920 | 17 | 85 | 8.0 | 24.1 | 0.00 | 0.00 | 0.00 | 51 | 1016.2 |
| 20260503183420 | 17 | 178 | 8.0 | 24.1 | 0.00 | 0.00 | 0.00 | 52 | 1016.2 |
| 20260503182924 | 16 | 168 | 6.4 | 22.5 | 0.00 | 0.00 | 0.00 | 57 | 1016.6 |
| 20260503182920 | 17 | 240 | 6.4 | 19.3 | 0.00 | 0.00 | 0.00 | 52 | 1016.4 |
| 20260503181918 | 16 | 138 | 8.0 | 22.5 | 0.00 | 0.00 | 0.00 | 53 | 1016.7 |
| 20260503181418 | 16 | 134 | 8.0 | 20.9 | 0.00 | 0.00 | 0.00 | 52 | 1016.6 |
| 20260503180918 | 17 | 118 | 8.0 | 19.3 | 0.00 | 0.00 | 0.00 | 52 | 1016.8 |
| 20260503180421 | 16 | 226 | 6.4 | 20.9 | 0.00 | 0.00 | 0.00 | 53 | 1017.1 |
| 20260503180415 | 17 | 221 | 8.0 | 19.3 | 0.00 | 0.00 | 0.00 | 51 | 1016.9 |
| 20260503175916 | 17 | 156 | 8.0 | 20.9 | 0.00 | 0.00 | 0.00 | 52 | 1017.0 |
| 20260503174915 | 16 | 223 | 8.0 | 17.7 | 0.00 | 0.00 | 0.00 | 56 | 1017.5 |
| 20260503174416 | 16 | 195 | 8.0 | 17.7 | 0.00 | 0.00 | 0.00 | 52 | 1017.5 |
| 20260503173915 | 16 | 198 | 6.4 | 17.7 | 0.00 | 0.00 | 0.00 | 52 | 1017.7 |
| 20260503173413 | 16 | 212 | 8.0 | 16.1 | 0.00 | 0.00 | 0.00 | 55 | 1018.0 |
| 20260503172913 | 17 | 198 | 8.0 | 14.5 | 0.00 | 0.00 | 0.00 | 52 | 1018.1 |
| 20260503172413 | 16 | 235 | 6.4 | 17.7 | 0.00 | 0.00 | 0.00 | 54 | 1018.0 |
| 20260503171913 | 16 | 244 | 6.4 | 17.7 | 0.00 | 0.00 | 0.00 | 52 | 1017.9 |
| 20260503171413 | 16 | 167 | 8.0 | 17.7 | 0.00 | 0.00 | 0.00 | 57 | 1018.1 |
| 20260503170914 | 16 | 195 | 8.0 | 17.7 | 0.00 | 0.00 | 0.00 | 54 | 1018.2 |
| 20260503170412 | 16 | 151 | 6.4 | 17.7 | 0.00 | 0.00 | 0.00 | 55 | 1018.3 |
| 20260503150909 | 14 | 219 | 6.4 | 27.4 | 0.00 | 0.00 | 0.00 | 60 | 1019.8 |
| 20260503131403 | 7 | 159 | 3.2 | 9.7 | 0.00 | 0.00 | 0.00 | 49 | 1019.9 |
| 20260503130903 | 6 | 190 | 3.2 | 8.0 | 0.00 | 0.00 | 0.00 | 45 | 1020.0 |
| 20260503130403 | 6 | 181 | 3.2 | 11.3 | 0.00 | 0.00 | 0.00 | 37 | 1020.1 |
| 20260503110357 | 2 | 282 | 0.0 | 3.2 | 0.00 | 0.00 | 0.00 | 1 | 1019.4 |
| 20260503090353 | 2 | 304 | 0.0 | 3.2 | 0.00 | 0.00 | 0.00 | 1 | 1019.4 |
| 20260503081351 | 2 | 0 | 0.0 | 3.2 | 0.00 | 0.00 | 0.00 | 1 | 1019.4 |
| 20260503080850 | 2 | 0 | 0.0 | 3.2 | 0.00 | 0.00 | 0.00 | 1 | 1019.3 |
| 20260503080350 | 2 | 0 | 0.0 | 3.2 | 0.00 | 0.00 | 0.00 | 1 | 1019.4 |
| 20260503072850 | 2 | 5 | 0.0 | 0.0 | 0.00 | 0.00 | 0.00 | 2 | 1019.3 |
| 20260503072348 | 2 | 5 | 0.0 | 0.0 | 0.00 | 0.00 | 0.00 | 3 | 1019.4 |
| 20260503071848 | 2 | 5 | 0.0 | 0.0 | 0.00 | 0.00 | 0.00 | 4 | 1019.3 |
| 20260503071348 | 2 | 5 | 0.0 | 0.0 | 0.00 | 0.00 | 0.00 | 5 | 1019.4 |
| 20260503071344 | 2 | 5 | 0.0 | 0.0 | 0.00 | 0.00 | 0.00 | 5 | 1019.4 |
| 20260503070342 | 2 | 5 | 0.0 | 0.0 | 0.00 | 0.00 | 0.00 | 6 | 1019.4 |
| 20260503060340 | 2 | 5 | 0.0 | 0.0 | 0.00 | 0.00 | 0.00 | 14 | 1019.8 |
| 20260503054840 | 2 | 5 | 0.0 | 0.0 | 0.00 | 0.00 | 0.00 | 19 | 1019.8 |
| 20260503054340 | 2 | 5 | 0.0 | 0.0 | 0.00 | 0.00 | 0.00 | 19 | 1019.9 |
| 20260503053841 | 2 | 5 | 0.0 | 0.0 | 0.00 | 0.00 | 0.00 | 20 | 1019.9 |
| 20260503053341 | 2 | 5 | 0.0 | 0.0 | 0.00 | 0.00 | 0.00 | 22 | 1019.9 |
| 20260503052839 | 3 | 5 | 0.0 | 0.0 | 0.00 | 0.00 | 0.00 | 23 | 1019.9 |
| 20260503052338 | 3 | 5 | 0.0 | 0.0 | 0.00 | 0.00 | 0.00 | 24 | 1019.9 |
| 20260503051838 | 3 | 5 | 0.0 | 0.0 | 0.00 | 0.00 | 0.00 | 25 | 1019.9 |
| 20260503051337 | 3 | 5 | 0.0 | 0.0 | 0.00 | 0.00 | 0.00 | 27 | 1020.0 |
| 20260503050837 | 3 | 5 | 0.0 | 0.0 | 0.00 | 0.00 | 0.00 | 29 | 1020.0 |
| 20260503050337 | 3 | 5 | 0.0 | 0.0 | 0.00 | 0.00 | 0.00 | 30 | 1020.0 |
| 20260503045841 | 3 | 5 | 0.0 | 0.0 | 0.00 | 0.00 | 0.00 | 33 | 1020.0 |
| 20260503045837 | 3 | 5 | 0.0 | 0.0 | 0.00 | 0.00 | 0.00 | 32 | 1020.0 |
| 20260503044838 | 3 | 5 | 0.0 | 0.0 | 0.00 | 0.00 | 0.00 | 33 | 1019.9 |
| 20260503044338 | 3 | 5 | 0.0 | 0.0 | 0.00 | 0.00 | 0.00 | 33 | 1019.9 |
| 20260503043842 | 3 | 5 | 0.0 | 1.6 | 0.00 | 0.00 | 0.00 | 37 | 1019.9 |
| 20260503043838 | 3 | 5 | 0.0 | 1.6 | 0.00 | 0.00 | 0.00 | 35 | 1019.9 |
| 20260503042836 | 3 | 5 | 0.0 | 0.0 | 0.00 | 0.00 | 0.00 | 40 | 1020.0 |
| 20260503042336 | 3 | 5 | 0.0 | 0.0 | 0.00 | 0.00 | 0.00 | 45 | 1020.0 |
| 20260503041838 | 3 | 5 | 0.0 | 0.0 | 0.00 | 0.00 | 0.00 | 49 | 1020.0 |
| 20260503041834 | 3 | 5 | 0.0 | 0.0 | 0.00 | 0.00 | 0.00 | 49 | 1020.0 |
| 20260503040834 | 3 | 5 | 0.0 | 0.0 | 0.00 | 0.00 | 0.00 | 50 | 1020.0 |
| 20260503040334 | 3 | 5 | 0.0 | 0.0 | 0.00 | 0.00 | 0.00 | 50 | 1020.0 |
| 20260503035834 | 3 | 5 | 0.0 | 0.0 | 0.00 | 0.00 | 0.00 | 53 | 1020.0 |
| 20260503035334 | 4 | 5 | 0.0 | 0.0 | 0.00 | 0.00 | 0.00 | 54 | 1020.0 |
| 20260503034834 | 4 | 5 | 0.0 | 0.0 | 0.00 | 0.00 | 0.00 | 54 | 1020.0 |
| 20260503034333 | 4 | 5 | 0.0 | 0.0 | 0.00 | 0.00 | 0.00 | 54 | 1019.9 |
| 20260503033833 | 4 | 5 | 0.0 | 0.0 | 0.00 | 0.00 | 0.00 | 53 | 1019.9 |
| 20260503033333 | 4 | 5 | 0.0 | 0.0 | 0.00 | 0.00 | 0.00 | 52 | 1019.9 |
| 20260503032833 | 4 | 5 | 0.0 | 0.0 | 0.00 | 0.00 | 0.00 | 53 | 1019.9 |
| 20260503032333 | 5 | 5 | 0.0 | 0.0 | 0.00 | 0.00 | 0.00 | 54 | 1019.9 |
| 20260503031833 | 5 | 5 | 0.0 | 0.0 | 0.00 | 0.00 | 0.00 | 55 | 1019.9 |
| 20260503031333 | 5 | 5 | 0.0 | 0.0 | 0.00 | 0.00 | 0.00 | 59 | 1019.9 |
| 20260503030833 | 5 | 5 | 0.0 | 0.0 | 0.00 | 0.00 | 0.00 | 62 | 1019.9 |
| 20260503030333 | 5 | 5 | 0.0 | 0.0 | 0.00 | 0.00 | 0.00 | 61 | 1020.0 |
| 20260503025831 | 5 | 5 | 0.0 | 0.0 | 0.00 | 0.00 | 0.00 | 61 | 1020.0 |
| 20260503025331 | 5 | 5 | 0.0 | 0.0 | 0.00 | 0.00 | 0.00 | 62 | 1020.0 |
| 20260503024831 | 5 | 5 | 0.0 | 0.0 | 0.00 | 0.00 | 0.00 | 64 | 1020.0 |
| 20260503024438 | 5 | 5 | 0.0 | 0.0 | 0.00 | 0.00 | 0.00 | 66 | 1020.0 |
| 20260503024335 | 5 | 5 | 0.0 | 0.0 | 0.00 | 0.00 | 0.00 | 66 | 1020.0 |
| 20260503024331 | 5 | 5 | 0.0 | 0.0 | 0.00 | 0.00 | 0.00 | 64 | 1019.9 |
| 20260503023438 | 6 | 5 | 0.0 | 0.0 | 0.00 | 0.00 | 0.00 | 66 | 1019.9 |
| 20260503022331 | 6 | 5 | 0.0 | 0.0 | 0.00 | 0.00 | 0.00 | 66 | 1019.9 |
| 20260503021836 | 6 | 5 | 0.0 | 0.0 | 0.00 | 0.00 | 0.00 | 67 | 1019.7 |
| 20260503021831 | 6 | 5 | 0.0 | 0.0 | 0.00 | 0.00 | 0.00 | 66 | 1019.9 |
| 20260503021332 | 6 | 5 | 0.0 | 0.0 | 0.00 | 0.00 | 0.00 | 67 | 1019.8 |
| 20260503020332 | 6 | 5 | 0.0 | 0.0 | 0.00 | 0.00 | 0.00 | 67 | 1019.7 |
| 20260503015832 | 7 | 5 | 0.0 | 0.0 | 0.00 | 0.00 | 0.00 | 67 | 1019.6 |
| 20260503015337 | 7 | 5 | 0.0 | 0.0 | 0.00 | 0.00 | 0.00 | 65 | 1019.5 |
| 20260503015331 | 7 | 5 | 0.0 | 0.0 | 0.00 | 0.00 | 0.00 | 67 | 1019.6 |
| 20260503014831 | 7 | 5 | 0.0 | 0.0 | 0.00 | 0.00 | 0.00 | 66 | 1019.5 |
| 20260503013833 | 8 | 5 | 0.0 | 0.0 | 0.00 | 0.00 | 0.00 | 63 | 1019.4 |
| 20260503013829 | 8 | 5 | 0.0 | 0.0 | 0.00 | 0.00 | 0.00 | 63 | 1019.4 |
| 20260503013328 | 8 | 5 | 0.0 | 0.0 | 0.00 | 0.00 | 0.00 | 63 | 1019.3 |
| 20260503012331 | 8 | 5 | 0.0 | 0.0 | 0.00 | 0.00 | 0.00 | 59 | 1019.3 |
| 20260503012327 | 8 | 5 | 0.0 | 0.0 | 0.00 | 0.00 | 0.00 | 62 | 1019.3 |
| 20260503011328 | 9 | 5 | 0.0 | 0.0 | 0.00 | 0.00 | 0.00 | 59 | 1019.2 |
| 20260503010828 | 9 | 5 | 0.0 | 0.0 | 0.00 | 0.00 | 0.00 | 57 | 1019.1 |
| 20260503010332 | 10 | 5 | 0.0 | 0.0 | 0.00 | 0.00 | 0.00 | 55 | 1019.1 |
| 20260503010328 | 9 | 5 | 0.0 | 0.0 | 0.00 | 0.00 | 0.00 | 55 | 1019.1 |
| 20260503005327 | 10 | 5 | 0.0 | 1.6 | 0.00 | 0.00 | 0.00 | 55 | 1019.0 |
| 20260503004827 | 10 | 5 | 0.0 | 1.6 | 0.00 | 0.00 | 0.00 | 54 | 1019.1 |
| 20260503004326 | 10 | 0 | 0.0 | 4.8 | 0.00 | 0.00 | 0.00 | 51 | 1019.1 |
| 20260503003826 | 10 | 0 | 0.0 | 4.8 | 0.00 | 0.00 | 0.00 | 52 | 1019.1 |
| 20260503003325 | 10 | 0 | 0.0 | 1.6 | 0.00 | 0.00 | 0.00 | 52 | 1019.1 |
| 20260503002825 | 10 | 0 | 1.6 | 6.4 | 0.00 | 0.00 | 0.00 | 51 | 1019.1 |
| 20260503002325 | 10 | 0 | 3.2 | 11.3 | 0.00 | 0.00 | 0.00 | 50 | 1019.1 |
| 20260503001830 | 11 | 5 | 3.2 | 8.0 | 0.00 | 0.00 | 0.00 | 49 | 1019.1 |
| 20260503001825 | 10 | 355 | 3.2 | 11.3 | 0.00 | 0.00 | 0.00 | 48 | 1019.1 |
| 20260503000831 | 11 | 5 | 1.6 | 8.0 | 0.00 | 0.00 | 0.00 | 47 | 1018.9 |
| 20260503000825 | 11 | 0 | 3.2 | 8.0 | 0.00 | 0.00 | 0.00 | 47 | 1019.1 |
| 20260503000326 | 11 | 337 | 3.2 | 9.7 | 0.00 | 0.00 | 0.00 | 49 | 1019.0 |
| 20260502235825 | 11 | 349 | 3.2 | 9.7 | 0.00 | 0.00 | 0.00 | 48 | 1018.9 |
| 20260502235430 | 11 | 198 | 1.6 | 4.8 | 0.00 | 0.00 | 0.00 | 50 | 1018.9 |
| 20260502234323 | 11 | 242 | 1.6 | 6.4 | 0.00 | 0.00 | 0.00 | 47 | 1018.9 |
| 20260502233821 | 11 | 288 | 1.6 | 6.4 | 0.00 | 0.00 | 0.00 | 46 | 1018.9 |
| 20260502233319 | 11 | 11 | 3.2 | 9.7 | 0.00 | 0.00 | 0.00 | 46 | 1018.9 |
| 20260502232817 | 11 | 11 | 3.2 | 9.7 | 0.00 | 0.00 | 0.00 | 44 | 1018.8 |
| 20260502232318 | 11 | 33 | 1.6 | 8.0 | 0.00 | 0.00 | 0.00 | 47 | 1018.8 |
| 20260502231816 | 11 | 24 | 3.2 | 8.0 | 0.00 | 0.00 | 0.00 | 47 | 1018.9 |
| 20260502231321 | 11 | 5 | 3.2 | 8.0 | 0.00 | 0.00 | 0.00 | 48 | 1018.9 |
| 20260502231317 | 11 | 0 | 4.8 | 16.1 | 0.00 | 0.00 | 0.00 | 47 | 1018.9 |
| 20260502230319 | 11 | 338 | 1.6 | 8.0 | 0.00 | 0.00 | 0.00 | 46 | 1018.8 |
| 20260502230315 | 11 | 5 | 3.2 | 16.1 | 0.00 | 0.00 | 0.00 | 46 | 1018.9 |
| 20260502225936 | 11 | 5 | 3.2 | 8.0 | 0.00 | 0.00 | 0.00 | 46 | 1018.8 |
| 20260502224811 | 11 | 47 | 3.2 | 9.7 | 0.00 | 0.00 | 0.00 | 47 | 1018.8 |
| 20260502224312 | 11 | 355 | 3.2 | 9.7 | 0.00 | 0.00 | 0.00 | 45 | 1018.9 |
| 20260502223811 | 11 | 173 | 1.6 | 6.4 | 0.00 | 0.00 | 0.00 | 48 | 1018.8 |
| 20260502223308 | 11 | 342 | 1.6 | 12.9 | 0.00 | 0.00 | 0.00 | 49 | 1018.9 |
| 20260502222809 | 11 | 342 | 3.2 | 12.9 | 0.00 | 0.00 | 0.00 | 46 | 1018.9 |
| 20260502222309 | 11 | 342 | 4.8 | 14.5 | 0.00 | 0.00 | 0.00 | 44 | 1019.0 |
| 20260502221809 | 12 | 351 | 3.2 | 14.5 | 0.00 | 0.00 | 0.00 | 44 | 1018.9 |
| 20260502221312 | 12 | 69 | 6.4 | 17.7 | 0.00 | 0.00 | 0.00 | 43 | 1018.8 |
| 20260502221308 | 12 | 19 | 4.8 | 14.5 | 0.00 | 0.00 | 0.00 | 46 | 1018.8 |
| 20260502220310 | 12 | 326 | 4.8 | 20.9 | 0.00 | 0.00 | 0.00 | 44 | 1018.8 |
| 20260502215809 | 12 | 51 | 4.8 | 20.9 | 0.00 | 0.00 | 0.00 | 49 | 1018.9 |
| 20260502215308 | 12 | 317 | 4.8 | 17.7 | 0.00 | 0.00 | 0.00 | 46 | 1018.8 |
| 20260502214808 | 12 | 5 | 4.8 | 14.5 | 0.00 | 0.00 | 0.00 | 45 | 1018.8 |
| 20260502214313 | 12 | 0 | 4.8 | 16.1 | 0.00 | 0.00 | 0.00 | 47 | 1018.8 |
| 20260502214309 | 12 | 355 | 6.4 | 16.1 | 0.00 | 0.00 | 0.00 | 43 | 1018.8 |
| 20260502213309 | 12 | 52 | 3.2 | 11.3 | 0.00 | 0.00 | 0.00 | 46 | 1018.8 |
| 20260502212810 | 12 | 269 | 6.4 | 14.5 | 0.00 | 0.00 | 0.00 | 47 | 1018.7 |
| 20260502212309 | 12 | 351 | 6.4 | 19.3 | 0.00 | 0.00 | 0.00 | 43 | 1018.8 |
| 20260502211808 | 12 | 31 | 4.8 | 19.3 | 0.00 | 0.00 | 0.00 | 46 | 1018.7 |
| 20260502211308 | 12 | 355 | 3.2 | 9.7 | 0.00 | 0.00 | 0.00 | 48 | 1018.6 |
| 20260502210812 | 12 | 256 | 3.2 | 12.9 | 0.00 | 0.00 | 0.00 | 46 | 1018.6 |
| 20260502210808 | 12 | 225 | 3.2 | 11.3 | 0.00 | 0.00 | 0.00 | 44 | 1018.6 |
| 20260502210415 | 12 | 325 | 3.2 | 12.9 | 0.00 | 0.00 | 0.00 | 44 | 1018.7 |
| 20260502205309 | 12 | 321 | 4.8 | 12.9 | 0.00 | 0.00 | 0.00 | 48 | 1018.7 |
| 20260502204809 | 12 | 281 | 4.8 | 12.9 | 0.00 | 0.00 | 0.00 | 45 | 1018.7 |
| 20260502204308 | 12 | 44 | 4.8 | 17.7 | 0.00 | 0.00 | 0.00 | 47 | 1018.6 |
| 20260502203809 | 12 | 342 | 6.4 | 17.7 | 0.00 | 0.00 | 0.00 | 41 | 1018.6 |
| 20260502203309 | 13 | 38 | 4.8 | 16.1 | 0.00 | 0.00 | 0.00 | 46 | 1018.7 |
| 20260502202806 | 13 | 0 | 4.8 | 16.1 | 0.00 | 0.00 | 0.00 | 45 | 1018.7 |
| 20260502202306 | 13 | 173 | 6.4 | 14.5 | 0.00 | 0.00 | 0.00 | 45 | 1018.7 |
| 20260502201811 | 13 | 19 | 3.2 | 14.5 | 0.00 | 0.00 | 0.00 | 53 | 1018.8 |
| 20260502201807 | 13 | 29 | 4.8 | 14.5 | 0.00 | 0.00 | 0.00 | 48 | 1018.8 |